Regional Weather Roundup
Issued by NWS

Home | Current Version | Previous Version | Text Only | Print | Product List | Glossary Off
Versions: 1 2 3 4 5 6 7 8 9 10 11 12 13 14 15 16 17 18 19 20 21 22 23 24 25 26 27 28 29 30 31 32 33 34 35 36 37 38 39 40 41 42 43 44 45 46 47 48 49 50

000
ASUS43 KBIS 280510
RWRND

NORTH DAKOTA REGIONAL WEATHER ROUNDUP
NATIONAL WEATHER SERVICE BISMARCK ND
1200 AM CDT SUN AUG 28 2016

NOTE: "FAIR" INDICATES FEW OR NO CLOUDS BELOW 12,000 FEET WITH NO
SIGNIFICANT WEATHER AND/OR OBSTRUCTIONS TO VISIBILITY.


NDZ001>003-009>011-017-280600-
NORTHWEST NORTH DAKOTA

CITY           SKY/WX    TMP DP  RH WIND       PRES   REMARKS
WILLISTON      CLOUDY    70  46  42 SE6       29.81S
MINOT          CLEAR     60  48  64 SE6       29.88S
MINOT AFB      CLEAR     58  48  68 SE8       29.87R
$$

NDZ018>021-031>035-040>046-280600-
SOUTHWEST NORTH DAKOTA

CITY           SKY/WX    TMP DP  RH WIND       PRES   REMARKS
BISMARCK       CLEAR     61  52  72 E8        29.92S
DICKINSON      CLEAR     61  47  59 S13       29.87S
GARRISON         N/A     60  54  80 SE7       29.89S
HETTINGER ARPT CLEAR     62  51  67 SE5       29.92S
$$

NDZ004>008-012>016-024-026-027-054-280600-
NORTHEAST NORTH DAKOTA

CITY           SKY/WX    TMP DP  RH WIND       PRES   REMARKS
GRAND FORKS    CLEAR     57  54  89 S7        29.96R
GRND FRKS AFB  CLEAR     59  56  87 SW10      29.96R
DEVILS LAKE    CLEAR     62  60  93 SE10      29.95F
$$

NDZ022-023-025-028>030-036>039-047>053-280600-
SOUTHEAST NORTH DAKOTA

CITY           SKY/WX    TMP DP  RH WIND       PRES   REMARKS
FARGO          PTCLDY    64  59  83 SE8       29.98S
JAMESTOWN      CLEAR     61  59  93 SE6       29.96R
$$





USA.gov is the U.S. government's official web portal to all federal, state and local government web resources and services.